Flag for Japan Weather past 2 weeks in Himeji, Japan

Now
55 °F

Partly cloudy.


Feels Like: 51 °F
Forecast: 41 / 62 °F
Wind: 20 mph from North

Location: Osaka International Airport

Current Time: Apr 1, 2015 at 11:15:32 PM

Latest Report: Apr 1, 2015 at 8:00 PM


Visibility: N/A

Pressure: 29.95 "Hg

Humidity: 77%

Dew point: 48 °F

Location of HimejiLocation

Historic Weather in Himeji — Graph

°F

Himeji temperature yesterday

Maximum temperature yesterday: 72 °F (at 1:00 PM)
Minimum temperature yesterday: 46 °F (at 5:00 AM)
Average temperature yesterday: 63 °F

Past Weeks' High & Low Weather Summary

 TemperatureHumidityPressure
High72 °F (Mar 31, 1:00 PM)100% (Mar 19, 5:00 AM)30.57 "Hg (Mar 19, 5:00 AM)
Low34 °F (Mar 26, 6:00 AM)20% (Mar 27, 3:00 PM)29.71 "Hg (Mar 19, 11:00 AM)
Average56 °F60%30.09 "Hg
* Reported Mar 17 8:00 PM — Apr 1 8:00 PM, Himeji, Weather by CustomWeather, © 2015

Note: Actual official high and low records may vary slightly from our data, if they occured in-between our weather recording intervals... More about our weather records

Advertising

Himeji weather history for previous 24 hours

 ConditionsComfort  
Time TempWeatherWind HumidityBarometerVisibility
8:00 PM
Wed, Apr 1
55 °FPartly cloudy.20 mph77%29.95 "HgN/A
7:00 PM55 °FScattered showers. Partly cloudy.18 mph82%29.92 "HgN/A
6:00 PM57 °FSprinkles. Broken clouds.13 mph82%29.86 "HgN/A
5:00 PM63 °FScattered showers. Broken clouds.7 mph88%29.83 "Hg5 mi
4:00 PM63 °FSprinkles. Broken clouds.5 mph88%29.80 "Hg4 mi
3:00 PM61 °FSprinkles. Broken clouds.6 mph94%29.83 "Hg4 mi
2:00 PM61 °FSprinkles. Fog.9 mph94%29.83 "Hg3 mi
1:50 PM61 °FSprinkles. Fog.10 mph94%29.83 "Hg3 mi
1:00 PM61 °FSprinkles. Fog.9 mph94%29.86 "Hg3 mi
12:00 PM61 °FSprinkles. Fog.12 mph94%29.89 "Hg3 mi
11:00 AM61 °FSprinkles. Fog.9 mph94%29.89 "Hg3 mi
10:00 AM61 °FSprinkles. Fog.8 mph94%29.92 "Hg3 mi
9:47 AM61 °FSprinkles. Fog.6 mph94%29.92 "Hg3 mi
9:00 AM61 °FSprinkles. Broken clouds.6 mph94%29.92 "Hg5 mi
8:00 AM61 °FScattered showers. Broken clouds.5 mph88%29.92 "Hg6 mi
7:00 AM59 °FBroken clouds.5 mph88%29.92 "HgN/A
6:00 AM59 °FSprinkles. Broken clouds.3 mph94%29.92 "Hg6 mi
5:00 AM59 °FFog.6 mph94%29.92 "Hg4 mi
Weather by CustomWeather, © 2015

See weather overviewHow to use our weather pages